Location: Tel Aviv
(32.0670°N, 34.7670°E)
Time: 03:29:31
(UTC+03:00)

Tiros 1 - Pass Details

Date: 27 January 2022
Orbit: 629 x 663 km, 48.4° (Epoch: 26 May)

Event Time Altitude Azimuth Distance (km) Brightness Sun altitude
Rises 20:53:10 0° 238° (WSW) 2,977 - -47.2°
Reaches altitude 10° 20:55:32 10° 242° (WSW) 2,070 - -47.7°
Maximum altitude 21:00:16 61° 323° (NW) 754 - -48.7°
Drops below altitude 10° 21:05:01 10° 43° (NE) 2,079 - -49.7°
Sets 21:07:24 0° 47° (NE) 2,992 - -50.2°
